| time (UTC) | temp F | wind direction | speed knots | gust knots | rain 1hr in | rain 24hr in | rain mn in | humidity % | barometer mb |
| 20260906075733 | 77 | 175 | 0.0 | 0.0 | 0.00 | 0.38 | 0.00 | 95 | 1011.2 |
| 20260906075236 | 77 | 175 | 0.0 | 0.0 | 0.00 | 0.38 | 0.00 | 95 | 1011.3 |
| 20260906074716 | 77 | 175 | 0.0 | 0.0 | 0.00 | 0.38 | 0.00 | 95 | 1011.1 |
| 20260906074220 | 77 | 175 | 0.0 | 0.0 | 0.00 | 0.38 | 0.00 | 95 | 1011.1 |
| 20260906073724 | 77 | 175 | 0.0 | 0.0 | 0.00 | 0.38 | 0.00 | 94 | 1010.9 |
| 20260906073229 | 77 | 175 | 0.0 | 0.0 | 0.00 | 0.38 | 0.00 | 94 | 1010.9 |
| 20260906072750 | 77 | 175 | 0.0 | 0.0 | 0.00 | 0.38 | 0.00 | 95 | 1011.0 |
| 20260906072233 | 77 | 175 | 0.0 | 0.0 | 0.00 | 0.38 | 0.00 | 94 | 1011.0 |
| 20260906071737 | 77 | 175 | 0.0 | 0.0 | 0.00 | 0.38 | 0.00 | 94 | 1011.1 |
| 20260906071224 | 77 | 175 | 0.0 | 0.0 | 0.00 | 0.38 | 0.00 | 94 | 1011.0 |
| 20260906070729 | 77 | 175 | 0.0 | 0.0 | 0.00 | 0.38 | 0.00 | 94 | 1011.2 |
| 20260906070211 | 77 | 175 | 0.0 | 0.0 | 0.00 | 0.38 | 0.00 | 94 | 1011.2 |
| 20260906065716 | 77 | 175 | 0.0 | 0.0 | 0.00 | 0.38 | 0.00 | 94 | 1011.3 |
| 20260906065218 | 77 | 175 | 0.0 | 0.0 | 0.00 | 0.38 | 0.00 | 94 | 1011.3 |
| 20260906064742 | 77 | 175 | 0.0 | 0.0 | 0.00 | 0.38 | 0.00 | 94 | 1011.3 |
| 20260906064223 | 77 | 175 | 0.0 | 0.0 | 0.00 | 0.38 | 0.00 | 94 | 1011.3 |
| 20260906063727 | 77 | 175 | 0.0 | 0.0 | 0.00 | 0.38 | 0.00 | 95 | 1011.4 |
| 20260906063211 | 77 | 172 | 0.0 | 0.0 | 0.00 | 0.38 | 0.00 | 94 | 1011.4 |
| 20260906062716 | 77 | 166 | 0.0 | 0.0 | 0.00 | 0.38 | 0.00 | 94 | 1011.3 |
| 20260906062218 | 77 | 165 | 0.0 | 0.0 | 0.00 | 0.38 | 0.00 | 94 | 1011.4 |
| 20260906061721 | 77 | 165 | 0.0 | 0.0 | 0.00 | 0.38 | 0.00 | 95 | 1011.5 |
| 20260906061229 | 77 | 166 | 0.0 | 0.0 | 0.00 | 0.38 | 0.00 | 94 | 1011.6 |
| 20260906060725 | 77 | 165 | 0.0 | 0.0 | 0.00 | 0.38 | 0.00 | 94 | 1011.7 |
| 20260906060231 | 77 | 165 | 0.0 | 0.0 | 0.00 | 0.38 | 0.00 | 95 | 1011.8 |
| 20260906055714 | 77 | 165 | 0.0 | 0.0 | 0.00 | 0.38 | 0.00 | 95 | 1011.8 |
| 20260906055217 | 77 | 166 | 0.0 | 0.0 | 0.00 | 0.38 | 0.00 | 95 | 1011.8 |
| 20260906054721 | 77 | 165 | 0.0 | 0.0 | 0.00 | 0.38 | 0.00 | 95 | 1012.0 |
| 20260906054223 | 77 | 165 | 0.0 | 0.0 | 0.00 | 0.38 | 0.00 | 95 | 1012.1 |
| 20260906053728 | 77 | 165 | 0.0 | 0.0 | 0.00 | 0.38 | 0.00 | 95 | 1012.1 |
| 20260906053234 | 77 | 165 | 0.0 | 0.0 | 0.00 | 0.38 | 0.00 | 95 | 1012.1 |
| 20260906052737 | 77 | 165 | 0.0 | 0.0 | 0.00 | 0.38 | 0.00 | 95 | 1012.3 |
| 20260906052220 | 77 | 165 | 0.0 | 0.0 | 0.00 | 0.38 | 0.00 | 95 | 1012.3 |
| 20260906051724 | 77 | 165 | 0.0 | 0.0 | 0.00 | 0.38 | 0.00 | 94 | 1012.3 |
| 20260906051247 | 77 | 165 | 0.0 | 0.0 | 0.00 | 0.38 | 0.00 | 94 | 1012.5 |
| 20260906050714 | 77 | 165 | 0.0 | 0.0 | 0.00 | 0.38 | 0.00 | 95 | 1012.6 |
| 20260906050217 | 77 | 165 | 0.0 | 0.0 | 0.00 | 0.38 | 0.00 | 95 | 1012.6 |
| 20260906045720 | 77 | 165 | 0.0 | 0.0 | 0.00 | 0.39 | 0.00 | 95 | 1012.7 |
| 20260906045225 | 77 | 165 | 0.0 | 0.0 | 0.00 | 0.39 | 0.00 | 95 | 1012.8 |
| 20260906044727 | 77 | 165 | 0.0 | 0.0 | 0.00 | 0.39 | 0.00 | 95 | 1012.9 |
| 20260906044228 | 77 | 165 | 0.0 | 0.0 | 0.00 | 0.39 | 0.00 | 94 | 1012.8 |
| 20260906043730 | 77 | 165 | 0.0 | 0.0 | 0.00 | 0.39 | 0.00 | 94 | 1012.9 |
| 20260906043214 | 77 | 165 | 0.0 | 0.0 | 0.00 | 0.39 | 0.00 | 95 | 1012.9 |
| 20260906042717 | 77 | 165 | 0.0 | 0.0 | 0.00 | 0.39 | 0.00 | 94 | 1012.9 |
| 20260906042242 | 77 | 165 | 0.0 | 0.0 | 0.00 | 0.39 | 0.00 | 95 | 1012.9 |
| 20260906041744 | 77 | 165 | 0.0 | 0.0 | 0.00 | 0.39 | 0.00 | 94 | 1013.0 |
| 20260906041228 | 77 | 165 | 0.0 | 0.0 | 0.00 | 0.39 | 0.00 | 94 | 1013.1 |
| 20260906040719 | 77 | 165 | 0.0 | 0.0 | 0.00 | 0.39 | 0.00 | 94 | 1013.1 |
| 20260906040230 | 77 | 165 | 0.0 | 0.0 | 0.00 | 0.39 | 0.00 | 94 | 1013.2 |
| 20260906035734 | 77 | 165 | 0.0 | 0.0 | 0.00 | 0.41 | 0.39 | 94 | 1013.1 |
| 20260906035221 | 77 | 165 | 0.0 | 0.0 | 0.00 | 0.41 | 0.39 | 94 | 1013.1 |
| 20260906034723 | 77 | 165 | 0.0 | 0.0 | 0.00 | 0.41 | 0.39 | 94 | 1013.0 |
| 20260906034225 | 77 | 165 | 0.0 | 0.0 | 0.00 | 0.41 | 0.39 | 94 | 1013.0 |
| 20260906033728 | 77 | 165 | 0.0 | 0.0 | 0.00 | 0.41 | 0.39 | 94 | 1013.0 |
| 20260906033230 | 77 | 165 | 0.0 | 0.0 | 0.00 | 0.41 | 0.39 | 94 | 1012.9 |
| 20260906032712 | 77 | 165 | 0.0 | 0.0 | 0.00 | 0.41 | 0.39 | 94 | 1012.9 |
| 20260906032217 | 77 | 165 | 0.0 | 0.0 | 0.00 | 0.41 | 0.39 | 94 | 1012.9 |
| 20260906031721 | 77 | 165 | 0.0 | 0.0 | 0.00 | 0.41 | 0.39 | 94 | 1012.9 |
| 20260906031222 | 77 | 166 | 0.0 | 0.0 | 0.00 | 0.41 | 0.39 | 94 | 1013.0 |
| 20260906030726 | 77 | 161 | 0.0 | 0.0 | 0.00 | 0.41 | 0.39 | 94 | 1012.9 |
| 20260906030229 | 78 | 167 | 0.0 | 0.0 | 0.00 | 0.41 | 0.39 | 94 | 1012.9 |
| 20260906025718 | 78 | 167 | 0.0 | 0.0 | 0.00 | 0.42 | 0.39 | 94 | 1013.0 |
| 20260906025221 | 78 | 167 | 0.0 | 0.0 | 0.00 | 0.42 | 0.39 | 94 | 1013.0 |
| 20260906024725 | 78 | 164 | 0.0 | 0.0 | 0.00 | 0.42 | 0.39 | 94 | 1012.9 |
| 20260906024227 | 78 | 164 | 0.0 | 0.0 | 0.00 | 0.42 | 0.39 | 94 | 1012.8 |
| 20260906023751 | 78 | 177 | 0.0 | 0.0 | 0.00 | 0.42 | 0.39 | 94 | 1012.7 |
| 20260906023214 | 78 | 160 | 0.0 | 0.0 | 0.00 | 0.42 | 0.39 | 94 | 1012.7 |
| 20260906022717 | 78 | 166 | 0.0 | 0.0 | 0.00 | 0.42 | 0.39 | 94 | 1012.7 |
| 20260906022218 | 78 | 165 | 0.0 | 0.0 | 0.00 | 0.42 | 0.39 | 94 | 1012.8 |
| 20260906021721 | 78 | 170 | 0.0 | 0.0 | 0.00 | 0.42 | 0.39 | 94 | 1012.8 |
| 20260906021224 | 78 | 162 | 0.0 | 0.0 | 0.00 | 0.42 | 0.39 | 94 | 1012.9 |
| 20260906020723 | 78 | 167 | 0.0 | 0.0 | 0.00 | 0.42 | 0.39 | 94 | 1012.8 |
| 20260906020226 | 78 | 167 | 0.0 | 0.0 | 0.00 | 0.42 | 0.39 | 94 | 1012.8 |
| 20260906015727 | 78 | 170 | 0.0 | 0.0 | 0.00 | 0.43 | 0.39 | 94 | 1012.7 |
| 20260906015241 | 78 | 175 | 0.0 | 0.0 | 0.00 | 0.43 | 0.39 | 94 | 1012.5 |
| 20260906014722 | 78 | 175 | 0.0 | 0.0 | 0.00 | 0.43 | 0.39 | 94 | 1012.4 |
| 20260906014245 | 78 | 175 | 0.0 | 0.0 | 0.00 | 0.43 | 0.39 | 94 | 1012.3 |
| 20260906013727 | 78 | 174 | 0.0 | 0.0 | 0.00 | 0.43 | 0.39 | 94 | 1012.3 |
| 20260906013231 | 78 | 175 | 0.0 | 0.0 | 0.00 | 0.43 | 0.39 | 94 | 1012.3 |
| 20260906012714 | 78 | 175 | 0.0 | 0.0 | 0.00 | 0.43 | 0.39 | 94 | 1012.2 |
| 20260906012236 | 78 | 175 | 0.0 | 0.0 | 0.00 | 0.43 | 0.39 | 94 | 1012.1 |
| 20260906011739 | 78 | 186 | 0.0 | 0.0 | 0.00 | 0.43 | 0.39 | 94 | 1012.1 |
| 20260906011221 | 78 | 176 | 0.0 | 0.0 | 0.00 | 0.43 | 0.39 | 94 | 1012.0 |
| 20260906010723 | 78 | 176 | 0.0 | 0.0 | 0.00 | 0.43 | 0.39 | 94 | 1011.9 |
| 20260906010227 | 78 | 176 | 0.0 | 0.0 | 0.00 | 0.43 | 0.39 | 94 | 1012.0 |
| 20260906005730 | 78 | 185 | 0.0 | 0.0 | 0.00 | 0.51 | 0.39 | 94 | 1012.0 |
| 20260906005214 | 78 | 172 | 0.0 | 0.0 | 0.00 | 0.51 | 0.39 | 94 | 1011.9 |
| 20260906004716 | 78 | 169 | 0.0 | 0.0 | 0.00 | 0.51 | 0.39 | 94 | 1011.8 |
| 20260906004218 | 78 | 169 | 0.0 | 0.0 | 0.00 | 0.51 | 0.39 | 94 | 1011.8 |
| 20260906003718 | 78 | 168 | 0.0 | 0.0 | 0.00 | 0.51 | 0.39 | 94 | 1011.8 |
| 20260906003220 | 78 | 160 | 0.0 | 0.0 | 0.00 | 0.51 | 0.39 | 94 | 1011.8 |
| 20260906002728 | 78 | 188 | 0.0 | 0.0 | 0.00 | 0.51 | 0.39 | 94 | 1011.8 |
| 20260906002212 | 78 | 194 | 0.0 | 0.0 | 0.00 | 0.51 | 0.39 | 94 | 1011.8 |
| 20260906001735 | 78 | 194 | 0.0 | 0.0 | 0.00 | 0.51 | 0.39 | 94 | 1011.8 |
| 20260906001218 | 78 | 206 | 0.0 | 0.0 | 0.00 | 0.51 | 0.39 | 93 | 1011.7 |
| 20260906000727 | 79 | 206 | 0.0 | 0.9 | 0.00 | 0.51 | 0.39 | 93 | 1011.7 |
| 20260906000249 | 79 | 209 | 0.0 | 0.9 | 0.00 | 0.51 | 0.39 | 93 | 1011.8 |
| 20260905235731 | 79 | 203 | 0.0 | 0.9 | 0.00 | 0.52 | 0.39 | 93 | 1011.8 |
| 20260905235214 | 79 | 189 | 0.0 | 2.6 | 0.00 | 0.52 | 0.39 | 93 | 1011.8 |
| 20260905234718 | 79 | 189 | 0.9 | 2.6 | 0.00 | 0.52 | 0.39 | 92 | 1011.9 |
| 20260905234222 | 79 | 196 | 0.0 | 2.6 | 0.00 | 0.52 | 0.39 | 92 | 1011.9 |
| 20260905233723 | 80 | 197 | 0.0 | 0.9 | 0.00 | 0.52 | 0.39 | 92 | 1012.0 |
| 20260905233226 | 80 | 167 | 0.0 | 0.0 | 0.00 | 0.52 | 0.39 | 93 | 1012.1 |
| 20260905232746 | 79 | 167 | 0.0 | 0.0 | 0.00 | 0.52 | 0.39 | 93 | 1012.2 |
| 20260905232229 | 79 | 168 | 0.0 | 1.7 | 0.00 | 0.52 | 0.39 | 93 | 1012.2 |
| 20260905231717 | 79 | 111 | 0.9 | 2.6 | 0.00 | 0.52 | 0.39 | 92 | 1012.0 |
| 20260905231228 | 79 | 78 | 0.9 | 2.6 | 0.00 | 0.52 | 0.39 | 92 | 1012.1 |
| 20260905230729 | 79 | 93 | 1.7 | 2.6 | 0.00 | 0.52 | 0.39 | 92 | 1012.1 |
| 20260905230252 | 79 | 195 | 0.0 | 0.0 | 0.00 | 0.52 | 0.39 | 93 | 1012.0 |
| 20260905225714 | 79 | 195 | 0.0 | 1.7 | 0.00 | 1.02 | 0.39 | 92 | 1011.9 |
| 20260905225217 | 79 | 195 | 0.9 | 1.7 | 0.00 | 1.02 | 0.39 | 92 | 1011.9 |
| 20260905224720 | 79 | 195 | 0.9 | 1.7 | 0.00 | 1.02 | 0.39 | 92 | 1012.0 |
| 20260905224224 | 80 | 145 | 0.9 | 2.6 | 0.00 | 1.02 | 0.39 | 92 | 1011.9 |
| 20260905223728 | 80 | 115 | 1.7 | 2.6 | 0.00 | 1.02 | 0.39 | 92 | 1011.9 |
| 20260905223212 | 79 | 118 | 0.9 | 1.7 | 0.00 | 1.02 | 0.39 | 92 | 1011.9 |
| 20260905204714 | 80 | 77 | 2.6 | 2.6 | 0.00 | 1.56 | 0.39 | 92 | 1013.0 |
| 20260905204218 | 80 | 111 | 0.9 | 2.6 | 0.00 | 1.56 | 0.39 | 92 | 1013.0 |
| 20260905203721 | 80 | 228 | 0.0 | 3.5 | 0.00 | 1.56 | 0.39 | 92 | 1012.8 |
| 20260905203229 | 80 | 79 | 2.6 | 3.5 | 0.00 | 1.56 | 0.39 | 92 | 1012.6 |
| 20260905202731 | 80 | 83 | 0.9 | 2.6 | 0.00 | 1.56 | 0.39 | 92 | 1012.7 |
| 20260905202215 | 80 | 93 | 0.9 | 1.7 | 0.00 | 1.56 | 0.39 | 92 | 1012.6 |
| 20260905201719 | 80 | 201 | 0.0 | 1.7 | 0.00 | 1.56 | 0.39 | 92 | 1012.7 |
| 20260905201243 | 79 | 113 | 0.0 | 0.9 | 0.00 | 1.56 | 0.39 | 93 | 1012.7 |
| 20260905200713 | 79 | 158 | 0.9 | 2.6 | 0.00 | 1.56 | 0.39 | 92 | 1012.8 |
| 20260905200215 | 79 | 194 | 0.9 | 2.6 | 0.00 | 1.56 | 0.39 | 92 | 1012.7 |
| 20260905195717 | 79 | 130 | 0.9 | 1.7 | 0.00 | 1.56 | 0.39 | 92 | 1012.8 |
| 20260905195241 | 79 | 122 | 0.0 | 1.7 | 0.00 | 1.56 | 0.39 | 92 | 1013.0 |
| 20260905194724 | 79 | 96 | 0.9 | 1.7 | 0.00 | 1.56 | 0.39 | 92 | 1013.3 |
| 20260905193719 | 79 | 203 | 0.0 | 0.9 | 0.00 | 1.56 | 0.39 | 93 | 1013.4 |
| 20260905193225 | 79 | 156 | 0.9 | 0.9 | 0.00 | 1.56 | 0.39 | 93 | 1013.1 |
| 20260905192727 | 79 | 155 | 0.9 | 0.9 | 0.00 | 1.56 | 0.39 | 92 | 1012.9 |
| 20260905192231 | 79 | 136 | 0.0 | 1.7 | 0.00 | 1.56 | 0.39 | 92 | 1012.7 |
| 20260905191719 | 78 | 139 | 1.7 | 1.7 | 0.01 | 1.56 | 0.39 | 93 | 1012.6 |
| 20260905191223 | 78 | 218 | 0.9 | 0.9 | 0.03 | 1.56 | 0.39 | 93 | 1012.6 |
| 20260905190727 | 78 | 218 | 0.0 | 0.9 | 0.14 | 1.56 | 0.39 | 93 | 1012.6 |
| 20260905190232 | 78 | 199 | 0.0 | 0.9 | 0.23 | 1.56 | 0.39 | 93 | 1012.5 |
| 20260905185713 | 77 | 199 | 0.0 | 1.7 | 0.29 | 1.56 | 0.39 | 93 | 1012.6 |
| 20260905185217 | 78 | 150 | 0.9 | 1.7 | 0.29 | 1.56 | 0.39 | 93 | 1012.7 |
| 20260905184721 | 78 | 108 | 0.9 | 2.6 | 0.29 | 1.56 | 0.39 | 92 | 1012.9 |
| 20260905184225 | 78 | 116 | 0.9 | 2.6 | 0.29 | 1.56 | 0.39 | 92 | 1013.1 |
| 20260905183728 | 78 | 147 | 0.0 | 0.9 | 0.29 | 1.56 | 0.39 | 92 | 1013.3 |
| 20260905183212 | 78 | 227 | 0.9 | 2.6 | 0.29 | 1.56 | 0.39 | 91 | 1013.4 |
| 20260905182716 | 78 | 242 | 0.9 | 6.1 | 0.29 | 1.56 | 0.39 | 91 | 1013.3 |
| 20260905182224 | 78 | 292 | 3.5 | 9.6 | 0.29 | 1.56 | 0.39 | 90 | 1013.4 |
| 20260905181728 | 78 | 293 | 7.0 | 14.8 | 0.27 | 1.54 | 0.37 | 89 | 1013.5 |
| 20260905181212 | 79 | 293 | 8.7 | 16.5 | 0.25 | 1.51 | 0.34 | 90 | 1013.6 |
| 20260905180727 | 80 | 283 | 10.4 | 16.5 | 0.15 | 1.41 | 0.24 | 90 | 1013.6 |
| 20260905180232 | 80 | 265 | 9.6 | 16.5 | 0.07 | 1.33 | 0.16 | 90 | 1013.5 |
| 20260905175715 | 82 | 272 | 9.6 | 20.9 | 0.01 | 1.27 | 0.10 | 88 | 1013.3 |
| 20260905175238 | 84 | 306 | 7.8 | 13.0 | 0.01 | 1.27 | 0.10 | 85 | 1013.3 |
| 20260905174721 | 84 | 331 | 2.6 | 5.2 | 0.01 | 1.27 | 0.10 | 86 | 1013.1 |
| 20260905174225 | 84 | 356 | 4.3 | 7.8 | 0.05 | 1.27 | 0.10 | 85 | 1013.0 |
| 20260905173729 | 84 | 345 | 3.5 | 8.7 | 0.08 | 1.27 | 0.10 | 86 | 1013.1 |
| 20260905173213 | 84 | 8 | 5.2 | 7.0 | 0.08 | 1.27 | 0.10 | 85 | 1013.0 |
| 20260905172717 | 84 | 6 | 2.6 | 5.2 | 0.08 | 1.27 | 0.10 | 85 | 1013.1 |
| 20260905172224 | 83 | 342 | 3.5 | 6.1 | 0.08 | 1.27 | 0.10 | 86 | 1013.1 |
| 20260905171727 | 84 | 4 | 3.5 | 8.7 | 0.08 | 1.27 | 0.10 | 86 | 1013.1 |
| 20260905171252 | 84 | 339 | 6.1 | 8.7 | 0.07 | 1.26 | 0.09 | 85 | 1013.4 |
| 20260905170716 | 83 | 314 | 5.2 | 7.0 | 0.07 | 1.26 | 0.09 | 86 | 1013.4 |
| 20260905170219 | 83 | 24 | 2.6 | 5.2 | 0.07 | 1.26 | 0.09 | 86 | 1013.5 |
| 20260905165742 | 83 | 351 | 2.6 | 7.8 | 0.07 | 1.26 | 0.09 | 86 | 1013.6 |
| 20260905165226 | 83 | 18 | 5.2 | 8.7 | 0.07 | 1.26 | 0.09 | 86 | 1013.7 |
| 20260905164731 | 84 | 18 | 6.1 | 13.9 | 0.07 | 1.26 | 0.09 | 85 | 1013.8 |
| 20260905164216 | 85 | 34 | 10.4 | 13.9 | 0.02 | 1.21 | 0.04 | 82 | 1013.8 |
| 20260905163719 | 86 | 19 | 9.6 | 11.3 | 0.00 | 1.19 | 0.02 | 81 | 1013.8 |
| 20260905163223 | 87 | 294 | 3.5 | 5.2 | 0.00 | 1.19 | 0.02 | 77 | 1013.9 |
| 20260905162726 | 87 | 274 | 2.6 | 8.7 | 0.00 | 1.19 | 0.02 | 76 | 1014.0 |
| 20260905162214 | 87 | 269 | 5.2 | 8.7 | 0.00 | 1.19 | 0.02 | 76 | 1014.0 |
| 20260905161718 | 88 | 275 | 3.5 | 6.1 | 0.00 | 1.19 | 0.02 | 78 | 1014.1 |
| 20260905161222 | 87 | 307 | 2.6 | 5.2 | 0.00 | 1.19 | 0.02 | 77 | 1014.1 |
| 20260905160713 | 87 | 279 | 2.6 | 7.0 | 0.00 | 1.19 | 0.02 | 78 | 1014.2 |
| 20260905155225 | 86 | 299 | 2.6 | 5.2 | 0.00 | 1.19 | 0.02 | 80 | 1014.3 |
| 20260905154749 | 86 | 283 | 4.3 | 7.0 | 0.00 | 1.19 | 0.02 | 79 | 1014.4 |
| 20260905154232 | 86 | 284 | 5.2 | 7.8 | 0.00 | 1.19 | 0.02 | 80 | 1014.5 |
| 20260905153718 | 86 | 277 | 4.3 | 7.8 | 0.00 | 1.19 | 0.02 | 81 | 1014.5 |
| 20260905153221 | 86 | 267 | 1.7 | 7.8 | 0.00 | 1.19 | 0.02 | 81 | 1014.6 |
| 20260905152726 | 86 | 294 | 3.5 | 7.8 | 0.00 | 1.19 | 0.02 | 81 | 1014.6 |
| 20260905152231 | 85 | 295 | 3.5 | 6.1 | 0.00 | 1.19 | 0.02 | 82 | 1014.6 |
| 20260905151715 | 85 | 269 | 4.3 | 7.8 | 0.00 | 1.19 | 0.02 | 84 | 1014.7 |
| 20260905151219 | 85 | 286 | 4.3 | 7.8 | 0.00 | 1.19 | 0.02 | 84 | 1014.7 |
| 20260905150724 | 85 | 281 | 5.2 | 7.0 | 0.00 | 1.19 | 0.02 | 84 | 1014.8 |
| 20260905150232 | 85 | 277 | 5.2 | 7.8 | 0.00 | 1.19 | 0.02 | 84 | 1014.8 |
| 20260905145717 | 85 | 282 | 4.3 | 9.6 | 0.00 | 1.19 | 0.02 | 85 | 1014.8 |
| 20260905145221 | 85 | 273 | 5.2 | 9.6 | 0.00 | 1.19 | 0.02 | 85 | 1014.9 |
| 20260905144726 | 85 | 276 | 2.6 | 5.2 | 0.00 | 1.19 | 0.02 | 87 | 1014.8 |
| 20260905144231 | 84 | 295 | 2.6 | 7.0 | 0.00 | 1.19 | 0.02 | 87 | 1014.8 |
| 20260905143714 | 84 | 288 | 5.2 | 7.0 | 0.00 | 1.19 | 0.02 | 86 | 1014.9 |
| 20260905143217 | 84 | 274 | 4.3 | 7.0 | 0.00 | 1.19 | 0.02 | 87 | 1014.9 |
| 20260905142721 | 84 | 281 | 4.3 | 6.1 | 0.00 | 1.19 | 0.02 | 87 | 1014.8 |
| 20260905142225 | 84 | 272 | 1.7 | 5.2 | 0.01 | 1.19 | 0.02 | 88 | 1014.9 |
| 20260905141728 | 83 | 292 | 3.5 | 5.2 | 0.01 | 1.19 | 0.02 | 88 | 1014.9 |
| 20260905141217 | 83 | 290 | 2.6 | 6.1 | 0.01 | 1.19 | 0.02 | 89 | 1014.9 |
| 20260905140730 | 83 | 283 | 1.7 | 6.1 | 0.01 | 1.19 | 0.02 | 90 | 1014.9 |
| 20260905140213 | 83 | 269 | 2.6 | 5.2 | 0.01 | 1.19 | 0.02 | 90 | 1014.8 |
| 20260905135717 | 82 | 291 | 3.5 | 5.2 | 0.01 | 1.19 | 0.02 | 90 | 1014.8 |
| 20260905135221 | 82 | 276 | 2.6 | 5.2 | 0.01 | 1.19 | 0.02 | 91 | 1014.7 |
| 20260905134724 | 82 | 284 | 3.5 | 6.1 | 0.01 | 1.19 | 0.02 | 91 | 1014.6 |
| 20260905134229 | 81 | 272 | 3.5 | 6.1 | 0.01 | 1.19 | 0.02 | 92 | 1014.6 |
| 20260905133713 | 81 | 258 | 1.7 | 3.5 | 0.01 | 1.19 | 0.02 | 92 | 1014.6 |
| 20260905133217 | 81 | 282 | 0.9 | 5.2 | 0.01 | 1.19 | 0.02 | 92 | 1014.6 |
| 20260905132721 | 81 | 274 | 2.6 | 7.0 | 0.01 | 1.19 | 0.02 | 93 | 1014.6 |
| 20260905132225 | 81 | 286 | 2.6 | 4.3 | 0.00 | 1.18 | 0.01 | 93 | 1014.6 |
| 20260905131713 | 81 | 258 | 0.9 | 2.6 | 0.00 | 1.18 | 0.01 | 94 | 1014.6 |
| 20260905131217 | 81 | 157 | 0.0 | 0.0 | 0.00 | 1.18 | 0.01 | 94 | 1014.6 |
| 20260905130721 | 81 | 157 | 0.0 | 0.0 | 0.00 | 1.18 | 0.01 | 95 | 1014.6 |
| 20260905130226 | 80 | 156 | 0.0 | 0.0 | 0.00 | 1.18 | 0.01 | 95 | 1014.4 |
| 20260905125730 | 80 | 157 | 0.0 | 0.0 | 0.00 | 1.18 | 0.01 | 95 | 1014.6 |
| 20260905125214 | 79 | 157 | 0.0 | 0.0 | 0.00 | 1.18 | 0.01 | 95 | 1014.6 |
| 20260905124716 | 79 | 158 | 0.0 | 0.0 | 0.00 | 1.18 | 0.01 | 95 | 1014.7 |
| 20260905124240 | 79 | 158 | 0.0 | 0.0 | 0.00 | 1.18 | 0.01 | 95 | 1014.6 |
| 20260905123721 | 79 | 157 | 0.0 | 0.0 | 0.00 | 1.18 | 0.01 | 95 | 1014.6 |
| 20260905123225 | 78 | 156 | 0.0 | 0.0 | 0.00 | 1.18 | 0.01 | 95 | 1014.5 |
| 20260905122726 | 78 | 156 | 0.0 | 0.0 | 0.00 | 1.18 | 0.01 | 95 | 1014.5 |
| 20260905122231 | 78 | 159 | 0.0 | 0.0 | 0.00 | 1.18 | 0.01 | 95 | 1014.4 |
| 20260905121718 | 78 | 159 | 0.0 | 0.0 | 0.00 | 1.18 | 0.01 | 95 | 1014.4 |
| 20260905121238 | 77 | 159 | 0.0 | 0.0 | 0.00 | 1.18 | 0.01 | 95 | 1014.3 |
| 20260905120745 | 77 | 159 | 0.0 | 0.0 | 0.00 | 1.18 | 0.01 | 95 | 1014.3 |
| 20260905120231 | 77 | 159 | 0.0 | 0.0 | 0.00 | 1.18 | 0.01 | 95 | 1014.2 |
| 20260905115715 | 77 | 159 | 0.0 | 0.0 | 0.00 | 1.18 | 0.01 | 95 | 1014.1 |
| 20260905115219 | 77 | 159 | 0.0 | 0.0 | 0.00 | 1.18 | 0.01 | 95 | 1014.1 |
| 20260905114723 | 77 | 160 | 0.0 | 0.0 | 0.00 | 1.18 | 0.01 | 95 | 1014.0 |
| 20260905114227 | 77 | 160 | 0.0 | 0.0 | 0.00 | 1.18 | 0.01 | 95 | 1013.9 |
| 20260905113732 | 77 | 160 | 0.0 | 0.0 | 0.00 | 1.18 | 0.01 | 95 | 1013.8 |
| 20260905113236 | 76 | 160 | 0.0 | 0.0 | 0.00 | 1.18 | 0.01 | 95 | 1013.8 |
| 20260905112720 | 77 | 159 | 0.0 | 0.0 | 0.00 | 1.18 | 0.01 | 95 | 1013.9 |
| 20260905112244 | 77 | 160 | 0.0 | 0.0 | 0.00 | 1.18 | 0.01 | 95 | 1013.8 |
| 20260905111727 | 76 | 160 | 0.0 | 0.0 | 0.00 | 1.18 | 0.01 | 95 | 1013.8 |
| 20260905111231 | 76 | 160 | 0.0 | 0.0 | 0.00 | 1.18 | 0.01 | 95 | 1013.7 |
| 20260905110714 | 76 | 160 | 0.0 | 0.0 | 0.00 | 1.18 | 0.01 | 95 | 1013.7 |
| 20260905110221 | 76 | 160 | 0.0 | 0.0 | 0.00 | 1.18 | 0.01 | 95 | 1013.7 |
| 20260905105725 | 76 | 160 | 0.0 | 0.0 | 0.00 | 1.18 | 0.01 | 95 | 1013.7 |
| 20260905105250 | 76 | 160 | 0.0 | 0.0 | 0.00 | 1.18 | 0.01 | 95 | 1013.7 |
| 20260905104734 | 76 | 160 | 0.0 | 0.0 | 0.00 | 1.18 | 0.01 | 95 | 1013.7 |
| 20260905104218 | 76 | 160 | 0.0 | 0.0 | 0.00 | 1.18 | 0.01 | 95 | 1013.7 |
| 20260905103719 | 76 | 160 | 0.0 | 0.0 | 0.00 | 1.18 | 0.01 | 95 | 1013.7 |
| 20260905103223 | 77 | 160 | 0.0 | 0.0 | 0.00 | 1.18 | 0.01 | 95 | 1013.6 |
| 20260905102728 | 76 | 158 | 0.0 | 0.0 | 0.00 | 1.18 | 0.01 | 95 | 1013.7 |
| 20260905102213 | 76 | 158 | 0.0 | 0.0 | 0.00 | 1.18 | 0.01 | 95 | 1013.6 |
| 20260905101717 | 76 | 158 | 0.0 | 0.0 | 0.00 | 1.18 | 0.01 | 95 | 1013.5 |
| 20260905101221 | 76 | 158 | 0.0 | 0.0 | 0.00 | 1.18 | 0.01 | 95 | 1013.5 |
| 20260905100736 | 76 | 158 | 0.0 | 0.0 | 0.00 | 1.18 | 0.01 | 95 | 1013.5 |
| 20260905100219 | 76 | 158 | 0.0 | 0.0 | 0.00 | 1.18 | 0.01 | 95 | 1013.4 |
| 20260905095717 | 76 | 158 | 0.0 | 0.0 | 0.00 | 1.18 | 0.01 | 95 | 1013.3 |
| 20260905095220 | 76 | 158 | 0.0 | 0.0 | 0.00 | 1.18 | 0.01 | 95 | 1013.3 |
| 20260905094724 | 76 | 158 | 0.0 | 0.0 | 0.00 | 1.18 | 0.01 | 95 | 1013.3 |
| 20260905094228 | 76 | 158 | 0.0 | 0.0 | 0.00 | 1.18 | 0.01 | 95 | 1013.3 |
| 20260905093732 | 76 | 158 | 0.0 | 0.0 | 0.00 | 1.18 | 0.01 | 95 | 1013.4 |
| 20260905093216 | 76 | 158 | 0.0 | 0.0 | 0.00 | 1.18 | 0.01 | 95 | 1013.3 |
| 20260905092717 | 76 | 158 | 0.0 | 0.0 | 0.00 | 1.18 | 0.01 | 95 | 1013.3 |
| 20260905092225 | 76 | 158 | 0.0 | 0.0 | 0.00 | 1.18 | 0.01 | 95 | 1013.3 |
| 20260905091729 | 76 | 158 | 0.0 | 0.0 | 0.00 | 1.18 | 0.01 | 95 | 1013.4 |
| 20260905091252 | 76 | 158 | 0.0 | 0.0 | 0.00 | 1.18 | 0.01 | 95 | 1013.4 |
| 20260905090715 | 76 | 158 | 0.0 | 0.0 | 0.00 | 1.18 | 0.01 | 95 | 1013.4 |
| 20260905090220 | 76 | 158 | 0.0 | 0.0 | 0.00 | 1.18 | 0.01 | 95 | 1013.3 |
| 20260905085724 | 76 | 158 | 0.0 | 0.0 | 0.00 | 1.18 | 0.01 | 95 | 1013.4 |
| 20260905085228 | 76 | 158 | 0.0 | 0.0 | 0.00 | 1.18 | 0.01 | 95 | 1013.5 |
| 20260905084713 | 76 | 158 | 0.0 | 0.0 | 0.00 | 1.18 | 0.01 | 95 | 1013.5 |
| 20260905084217 | 76 | 158 | 0.0 | 0.0 | 0.00 | 1.18 | 0.01 | 95 | 1013.5 |
| 20260905083741 | 76 | 158 | 0.0 | 0.0 | 0.00 | 1.18 | 0.01 | 95 | 1013.5 |
| 20260905083244 | 76 | 158 | 0.0 | 0.0 | 0.00 | 1.18 | 0.01 | 95 | 1013.4 |
| 20260905082726 | 76 | 158 | 0.0 | 0.0 | 0.00 | 1.18 | 0.01 | 95 | 1013.4 |
| 20260905082228 | 76 | 159 | 0.0 | 0.0 | 0.00 | 1.18 | 0.01 | 95 | 1013.5 |
| 20260905081716 | 76 | 159 | 0.0 | 0.0 | 0.00 | 1.18 | 0.01 | 95 | 1013.5 |
| 20260905081217 | 77 | 159 | 0.0 | 0.0 | 0.00 | 1.18 | 0.01 | 95 | 1013.4 |
| 20260905080730 | 76 | 158 | 0.0 | 0.0 | 0.00 | 1.18 | 0.01 | 95 | 1013.4 |
| 20260905080215 | 76 | 159 | 0.0 | 0.0 | 0.00 | 1.18 | 0.01 | 95 | 1013.3 |